QPF
0.01 0.00 0.00 0.00 0.00 0.01 0.01 0.02 0.02 0.01 0.01 0.01 0.00 0.01 0.01 0.01 0.01 0.02 0.04 0.07 0.09 0.11 0.12 0.12 0.11 0.09 0.08 0.08 0.08 0.06 0.05 0.05 0.05 0.05 0.04 0.03 0.03 0.05 0.06 0.05 0.06 0.09 0.10
0.00 0.01 0.01 0.01 0.01 0.01 0.02 0.02 0.02 0.02 0.02 0.02 0.01 0.01 0.01 0.01 0.00 0.01 0.02 0.02 0.03 0.06 0.07 0.09 0.11 0.09 0.07 0.07 0.06 0.05 0.06 0.05 0.05 0.05 0.05 0.05 0.06 0.07 0.06 0.05 0.04 0.05 0.06
0.00 0.01 0.01 0.01 0.01 0.01 0.02 0.03 0.03 0.02 0.02 0.01 0.01 0.01 0.01 0.01 0.01 0.01 0.01 0.02 0.03 0.05 0.06 0.07 0.07 0.07 0.07 0.08 0.07 0.05 0.06 0.05 0.04 0.05 0.05 0.06 0.06 0.07 0.06 0.06 0.05 0.04 0.04
0.00 0.01 0.01 0.01 0.01 0.01 0.02 0.03 0.04 0.02 0.01 0.01 0.01 0.02 0.02 0.01 0.01 0.01 0.01 0.02 0.03 0.03 0.03 0.03 0.03 0.04 0.05 0.06 0.07 0.05 0.05 0.04 0.03 0.03 0.04 0.03 0.04 0.05 0.08 0.06 0.05 0.04 0.03
0.00 0.00 0.00 0.00 0.01 0.01 0.02 0.03 0.03 0.02 0.02 0.04 0.02 0.02 0.03 0.02 0.01 0.01 0.00 0.01 0.03 0.02 0.02 0.01 0.01 0.02 0.02 0.02 0.03 0.03 0.02 0.02 0.02 0.01 0.01 0.02 0.02 0.03 0.08 0.06 0.04 0.03 0.03
0.00 0.00 0.00 0.01 0.01 0.01 0.02 0.02 0.02 0.02 0.03 0.04 0.03 0.02 0.02 0.01 0.00 0.00 0.00 0.00 0.01 0.01 0.01 0.00 0.01 0.01 0.01 0.01 0.01 0.02 0.02 0.02 0.01 0.01 0.01 0.01 0.01 0.04 0.08 0.05 0.03 0.04 0.03
0.00 0.00 0.00 0.01 0.01 0.01 0.01 0.02 0.01 0.02 0.03 0.03 0.03 0.03 0.01 0.01 0.01 0.00 0.00 0.00 0.00 0.00 0.00 0.00 0.00 0.00 0.00 0.00 0.00 0.01 0.01 0.02 0.02 0.02 0.02 0.02 0.04 0.06 0.05 0.04 0.03 0.04 0.04
0.00 0.00 0.00 0.01 0.01 0.01 0.01 0.01 0.01 0.02 0.02 0.03 0.03 0.02 0.02 0.01 0.01 0.00 0.00 0.00 0.00 0.00 0.01 0.00 0.00 0.00 0.00 0.00 0.00 0.00 0.01 0.01 0.02 0.02 0.02 0.02 0.02 0.02 0.02 0.02 0.02 0.02 0.04
0.00 0.00 0.00 0.01 0.01 0.01 0.02 0.02 0.03 0.04 0.04 0.04 0.03 0.01 0.01 0.01 0.01 0.00 0.00 0.00 0.00 0.00 0.01 0.00 0.01 0.01 0.00 0.00 0.01 0.01 0.01 0.01 0.01 0.02 0.02 0.02 0.02 0.01 0.01 0.01 0.01 0.01 0.02
0.00 0.01 0.01 0.01 0.02 0.02 0.02 0.02 0.04 0.04 0.04 0.04 0.03 0.01 0.00 0.00 0.01 0.01 0.00 0.01 0.01 0.00 0.00 0.01 0.01 0.01 0.01 0.00 0.01 0.01 0.01 0.01 0.01 0.01 0.02 0.02 0.02 0.01 0.01 0.02 0.02 0.02 0.02
0.00 0.01 0.00 0.01 0.01 0.01 0.01 0.01 0.03 0.05 0.06 0.04 0.03 0.02 0.00 0.00 0.00 0.01 0.01 0.01 0.01 0.00 0.00 0.00 0.01 0.01 0.02 0.01 0.01 0.02 0.01 0.01 0.01 0.01 0.01 0.01 0.02 0.02 0.02 0.02 0.03 0.03 0.03
0.00 0.01 0.00 0.01 0.01 0.01 0.01 0.02 0.02 0.03 0.06 0.05 0.03 0.01 0.01 0.01 0.01 0.01 0.01 0.01 0.01 0.00 0.00 0.00 0.00 0.01 0.02 0.02 0.02 0.03 0.01 0.01 0.01 0.01 0.01 0.01 0.02 0.02 0.02 0.02 0.04 0.05 0.05
0.01 0.01 0.01 0.00 0.01 0.01 0.00 0.01 0.01 0.02 0.04 0.03 0.02 0.01 0.01 0.01 0.01 0.01 0.01 0.01 0.00 0.00 0.00 0.00 0.00 0.01 0.02 0.03 0.03 0.04 0.02 0.01 0.01 0.01 0.02 0.02 0.02 0.03 0.03 0.04 0.05 0.06 0.06
0.00 0.01 0.01 0.01 0.00 0.01 0.01 0.01 0.01 0.02 0.02 0.02 0.02 0.01 0.01 0.01 0.00 0.00 0.01 0.01 0.00 0.00 0.00 0.00 0.00 0.00 0.02 0.03 0.03 0.03 0.02 0.02 0.01 0.01 0.01 0.01 0.02 0.02 0.02 0.03 0.05 0.06 0.06
0.00 0.00 0.00 0.01 0.01 0.01 0.01 0.01 0.02 0.02 0.01 0.01 0.02 0.01 0.01 0.01 0.00 0.00 0.00 0.00 0.00 0.00 0.00 0.00 0.00 0.00 0.01 0.03 0.02 0.01 0.01 0.01 0.01 0.01 0.00 0.00 0.01 0.01 0.01 0.02 0.02 0.03 0.04
0.00 0.00 0.00 0.00 0.00 0.01 0.01 0.02 0.02 0.01 0.01 0.02 0.02 0.01 0.01 0.01 0.00 0.00 0.00 0.00 0.00 0.00 0.01 0.00 0.00 0.00 0.01 0.02 0.02 0.00 0.00 0.00 0.00 0.01 0.01 0.01 0.01 0.01 0.01 0.01 0.01 0.01 0.02
0.00 0.00 0.00 0.01 0.02 0.03 0.03 0.04 0.04 0.04 0.04 0.04 0.02 0.01 0.01 0.01 0.01 0.00 0.00 0.00 0.00 0.00 0.01 0.00 0.00 0.00 0.00 0.01 0.01 0.01 0.00 0.00 0.00 0.00 0.00 0.01 0.01 0.02 0.02 0.01 0.01 0.01 0.01
0.00 0.00 0.00 0.01 0.02 0.03 0.03 0.03 0.03 0.03 0.04 0.04 0.03 0.02 0.02 0.01 0.01 0.00 0.01 0.00 0.01 0.01 0.01 0.01 0.00 0.00 0.00 0.00 0.01 0.01 0.00 0.00 0.00 0.00 0.00 0.00 0.00 0.01 0.01 0.02 0.01 0.01 0.01
0.00 0.00 0.00 0.00 0.01 0.01 0.02 0.02 0.03 0.03 0.03 0.03 0.03 0.03 0.02 0.02 0.02 0.01 0.01 0.00 0.00 0.00 0.01 0.01 0.00 0.00 0.00 0.00 0.00 0.00 0.00 0.00 0.00 0.00 0.00 0.00 0.00 0.00 0.00 0.00 0.01 0.00 0.00
0.01 0.00 0.00 0.01 0.01 0.00 0.01 0.01 0.01 0.01 0.01 0.01 0.02 0.01 0.02 0.02 0.02 0.02 0.01 0.01 0.01 0.00 0.01 0.01 0.01 0.00 0.00 0.00 0.00 0.00 0.00 0.00 0.00 0.00 0.00 0.00 0.00 0.00 0.00 0.00 0.00 0.00 0.00
0.02 0.01 0.01 0.01 0.01 0.01 0.01 0.01 0.01 0.01 0.02 0.01 0.02 0.01 0.01 0.01 0.02 0.02 0.01 0.01 0.01 0.01 0.01 0.01 0.00 0.00 0.00 0.00 0.00 0.00 0.00 0.00 0.00 0.00 0.00 0.00 0.00 0.00 0.00 0.00 0.01 0.01 0.00
0.01 0.01 0.01 0.01 0.01 0.00 0.01 0.01 0.01 0.01 0.01 0.02 0.01 0.01 0.00 0.01 0.01 0.01 0.01 0.01 0.01 0.01 0.01 0.01 0.01 0.00 0.00 0.00 0.00 0.00 0.00 0.00 0.00 0.00 0.00 0.00 0.00 0.00 0.00 0.00 0.00 0.00 0.01
0.01 0.01 0.01 0.01 0.01 0.00 0.00 0.01 0.01 0.01 0.01 0.01 0.01 0.01 0.00 0.00 0.00 0.01 0.01 0.01 0.01 0.01 0.00 0.00 0.00 0.00 0.00 0.00 0.00 0.00 0.00 0.00 0.00 0.00 0.00 0.00 0.00 0.00 0.00 0.00 0.00 0.00 0.00
0.01 0.01 0.01 0.01 0.01 0.00 0.00 0.01 0.01 0.01 0.01 0.00 0.00 0.00 0.00 0.00 0.00 0.01 0.01 0.01 0.01 0.01 0.01 0.00 0.00 0.00 0.00 0.00 0.00 0.00 0.00 0.00 0.00 0.00 0.00 0.00 0.00 0.00 0.00 0.00 0.00 0.00 0.00
0.01 0.01 0.01 0.01 0.01 0.01 0.01 0.01 0.01 0.01 0.01 0.01 0.01 0.00 0.00 0.00 0.01 0.01 0.01 0.01 0.01 0.01 0.01 0.01 0.01 0.01 0.01 0.01 0.01 0.01 0.01 0.00 0.00 0.00 0.00 0.00 0.00 0.00 0.00 0.00 0.00 0.00 0.00
0.01 0.01 0.01 0.01 0.01 0.02 0.01 0.01 0.01 0.01 0.00 0.01 0.00 0.00 0.00 0.00 0.01 0.01 0.01 0.01 0.01 0.01 0.01 0.01 0.01 0.01 0.01 0.01 0.01 0.01 0.01 0.01 0.00 0.00 0.00 0.00 0.00 0.00 0.00 0.00 0.00 0.00 0.00
MSLP
1017.94 1017.83 1017.72 1017.62 1017.52 1017.44 1017.37 1017.30 1017.22 1017.14 1017.03 1016.92 1016.82 1016.76 1016.75 1016.83 1016.98 1017.20 1017.45 1017.70 1017.91 1018.05 1018.11 1018.08 1017.99 1017.86 1017.73 1017.63 1017.56 1017.52 1017.49 1017.46 1017.40 1017.30 1017.17 1017.02 1016.88 1016.76 1016.69 1016.68 1016.72 1016.80 1016.91
1018.41 1018.25 1018.10 1017.97 1017.87 1017.80 1017.76 1017.72 1017.68 1017.63 1017.56 1017.48 1017.42 1017.40 1017.43 1017.52 1017.68 1017.90 1018.13 1018.35 1018.52 1018.62 1018.64 1018.60 1018.51 1018.41 1018.33 1018.29 1018.28 1018.31 1018.33 1018.34 1018.30 1018.20 1018.05 1017.86 1017.66 1017.47 1017.33 1017.23 1017.18 1017.18 1017.19
1018.95 1018.74 1018.57 1018.43 1018.33 1018.27 1018.25 1018.23 1018.22 1018.20 1018.16 1018.12 1018.09 1018.10 1018.15 1018.26 1018.43 1018.63 1018.83 1019.01 1019.13 1019.19 1019.19 1019.13 1019.05 1018.99 1018.95 1018.96 1019.02 1019.10 1019.17 1019.20 1019.17 1019.07 1018.89 1018.67 1018.42 1018.18 1017.97 1017.80 1017.67 1017.59 1017.52
1019.55 1019.32 1019.13 1018.98 1018.89 1018.84 1018.82 1018.82 1018.82 1018.81 1018.78 1018.76 1018.75 1018.78 1018.85 1018.97 1019.13 1019.32 1019.50 1019.64 1019.73 1019.75 1019.73 1019.67 1019.61 1019.57 1019.58 1019.63 1019.73 1019.84 1019.93 1019.97 1019.93 1019.80 1019.60 1019.35 1019.07 1018.79 1018.53 1018.31 1018.13 1017.99 1017.85
1020.21 1019.98 1019.78 1019.63 1019.54 1019.48 1019.46 1019.45 1019.43 1019.41 1019.38 1019.36 1019.36 1019.39 1019.47 1019.60 1019.76 1019.94 1020.10 1020.22 1020.29 1020.30 1020.27 1020.22 1020.18 1020.17 1020.20 1020.28 1020.39 1020.50 1020.58 1020.59 1020.53 1020.37 1020.14 1019.85 1019.54 1019.24 1018.96 1018.72 1018.51 1018.33 1018.15
1020.94 1020.71 1020.52 1020.38 1020.27 1020.20 1020.15 1020.11 1020.06 1020.01 1019.95 1019.91 1019.91 1019.94 1020.02 1020.15 1020.31 1020.49 1020.64 1020.76 1020.83 1020.85 1020.83 1020.80 1020.78 1020.80 1020.85 1020.93 1021.03 1021.11 1021.15 1021.11 1020.98 1020.78 1020.50 1020.19 1019.86 1019.54 1019.26 1019.01 1018.79 1018.59 1018.39
1021.75 1021.53 1021.35 1021.20 1021.09 1020.99 1020.91 1020.82 1020.73 1020.63 1020.54 1020.47 1020.44 1020.47 1020.55 1020.68 1020.84 1021.01 1021.17 1021.30 1021.38 1021.42 1021.43 1021.44 1021.45 1021.48 1021.54 1021.61 1021.67 1021.70 1021.67 1021.56 1021.36 1021.09 1020.76 1020.41 1020.06 1019.74 1019.46 1019.21 1018.99 1018.79 1018.58
1022.61 1022.43 1022.26 1022.11 1021.98 1021.86 1021.74 1021.62 1021.48 1021.33 1021.20 1021.10 1021.05 1021.06 1021.13 1021.25 1021.41 1021.58 1021.75 1021.88 1021.99 1022.06 1022.10 1022.14 1022.19 1022.24 1022.30 1022.35 1022.37 1022.34 1022.23 1022.03 1021.75 1021.40 1021.02 1020.62 1020.25 1019.91 1019.62 1019.38 1019.16 1018.95 1018.73
1023.52 1023.36 1023.21 1023.07 1022.94 1022.81 1022.67 1022.51 1022.35 1022.17 1022.01 1021.89 1021.81 1021.80 1021.85 1021.95 1022.10 1022.26 1022.41 1022.55 1022.67 1022.76 1022.84 1022.92 1022.99 1023.07 1023.13 1023.16 1023.14 1023.04 1022.86 1022.58 1022.22 1021.80 1021.35 1020.91 1020.50 1020.15 1019.84 1019.58 1019.34 1019.11 1018.87
1024.43 1024.30 1024.18 1024.06 1023.95 1023.83 1023.69 1023.53 1023.35 1023.17 1023.00 1022.86 1022.77 1022.73 1022.75 1022.83 1022.94 1023.06 1023.19 1023.32 1023.43 1023.53 1023.63 1023.73 1023.83 1023.92 1023.99 1024.00 1023.95 1023.81 1023.57 1023.22 1022.80 1022.32 1021.82 1021.33 1020.89 1020.49 1020.15 1019.86 1019.58 1019.31 1019.03
1025.31 1025.21 1025.12 1025.04 1024.96 1024.87 1024.76 1024.62 1024.47 1024.30 1024.14 1024.00 1023.90 1023.84 1023.83 1023.86 1023.91 1023.99 1024.07 1024.15 1024.23 1024.31 1024.41 1024.51 1024.62 1024.73 1024.80 1024.81 1024.74 1024.57 1024.29 1023.91 1023.45 1022.93 1022.39 1021.87 1021.39 1020.96 1020.58 1020.24 1019.91 1019.57 1019.23
1026.10 1026.05 1026.00 1025.97 1025.94 1025.90 1025.84 1025.75 1025.64 1025.51 1025.37 1025.24 1025.14 1025.06 1025.01 1024.98 1024.97 1024.97 1024.97 1024.98 1025.01 1025.05 1025.12 1025.21 1025.31 1025.42 1025.49 1025.50 1025.43 1025.25 1024.96 1024.57 1024.09 1023.56 1023.01 1022.48 1021.98 1021.52 1021.10 1020.70 1020.31 1019.91 1019.49
1026.81 1026.80 1026.80 1026.83 1026.85 1026.87 1026.87 1026.84 1026.78 1026.69 1026.59 1026.48 1026.38 1026.28 1026.19 1026.10 1026.02 1025.94 1025.85 1025.78 1025.73 1025.71 1025.72 1025.77 1025.85 1025.94 1026.00 1026.01 1025.94 1025.76 1025.48 1025.10 1024.63 1024.12 1023.59 1023.06 1022.56 1022.08 1021.63 1021.19 1020.75 1020.29 1019.81
1027.43 1027.47 1027.52 1027.60 1027.68 1027.75 1027.80 1027.82 1027.81 1027.77 1027.70 1027.61 1027.51 1027.40 1027.28 1027.14 1026.99 1026.83 1026.66 1026.50 1026.36 1026.26 1026.21 1026.20 1026.23 1026.28 1026.31 1026.31 1026.23 1026.06 1025.80 1025.44 1025.01 1024.53 1024.03 1023.53 1023.05 1022.59 1022.13 1021.68 1021.21 1020.71 1020.18
1028.01 1028.08 1028.18 1028.30 1028.42 1028.53 1028.62 1028.67 1028.69 1028.67 1028.63 1028.56 1028.46 1028.35 1028.21 1028.04 1027.84 1027.62 1027.38 1027.14 1026.92 1026.74 1026.61 1026.53 1026.49 1026.48 1026.47 1026.43 1026.33 1026.16 1025.91 1025.58 1025.18 1024.74 1024.29 1023.84 1023.40 1022.97 1022.54 1022.10 1021.63 1021.12 1020.57
1028.58 1028.69 1028.82 1028.96 1029.10 1029.22 1029.31 1029.37 1029.39 1029.39 1029.35 1029.29 1029.21 1029.09 1028.95 1028.77 1028.56 1028.30 1028.02 1027.73 1027.45 1027.20 1026.99 1026.83 1026.71 1026.63 1026.55 1026.46 1026.32 1026.13 1025.87 1025.55 1025.18 1024.78 1024.37 1023.97 1023.57 1023.19 1022.81 1022.41 1021.97 1021.49 1020.97
1029.18 1029.31 1029.45 1029.60 1029.73 1029.84 1029.92 1029.95 1029.96 1029.93 1029.89 1029.83 1029.76 1029.66 1029.54 1029.38 1029.17 1028.92 1028.63 1028.32 1028.00 1027.70 1027.42 1027.19 1026.99 1026.82 1026.67 1026.50 1026.31 1026.07 1025.78 1025.45 1025.08 1024.70 1024.32 1023.95 1023.61 1023.27 1022.94 1022.59 1022.21 1021.79 1021.32
1029.80 1029.95 1030.10 1030.25 1030.36 1030.44 1030.47 1030.47 1030.43 1030.38 1030.32 1030.26 1030.19 1030.12 1030.03 1029.91 1029.74 1029.52 1029.25 1028.95 1028.62 1028.28 1027.96 1027.66 1027.39 1027.13 1026.90 1026.65 1026.38 1026.09 1025.75 1025.39 1025.00 1024.61 1024.23 1023.88 1023.55 1023.25 1022.96 1022.66 1022.34 1021.99 1021.58
1030.43 1030.60 1030.76 1030.89 1030.98 1031.02 1031.01 1030.95 1030.87 1030.79 1030.70 1030.63 1030.58 1030.54 1030.49 1030.41 1030.30 1030.13 1029.90 1029.62 1029.30 1028.95 1028.60 1028.25 1027.92 1027.59 1027.28 1026.96 1026.62 1026.25 1025.86 1025.45 1025.02 1024.59 1024.19 1023.82 1023.48 1023.18 1022.90 1022.63 1022.35 1022.05 1021.71
1031.03 1031.22 1031.39 1031.51 1031.58 1031.59 1031.54 1031.44 1031.32 1031.20 1031.10 1031.03 1030.99 1030.97 1030.95 1030.92 1030.86 1030.74 1030.55 1030.30 1030.00 1029.66 1029.29 1028.92 1028.55 1028.17 1027.80 1027.41 1027.01 1026.59 1026.14 1025.67 1025.18 1024.71 1024.25 1023.82 1023.44 1023.10 1022.80 1022.53 1022.26 1021.99 1021.69
1031.54 1031.75 1031.93 1032.06 1032.12 1032.11 1032.05 1031.93 1031.79 1031.65 1031.54 1031.47 1031.43 1031.43 1031.44 1031.44 1031.40 1031.32 1031.17 1030.95 1030.66 1030.33 1029.97 1029.58 1029.19 1028.79 1028.38 1027.96 1027.52 1027.06 1026.56 1026.04 1025.50 1024.95 1024.43 1023.93 1023.47 1023.06 1022.70 1022.38 1022.09 1021.81 1021.52
1031.90 1032.14 1032.34 1032.49 1032.57 1032.57 1032.51 1032.40 1032.26 1032.13 1032.02 1031.94 1031.91 1031.91 1031.92 1031.93 1031.90 1031.83 1031.68 1031.48 1031.20 1030.88 1030.52 1030.14 1029.75 1029.34 1028.93 1028.51 1028.06 1027.57 1027.05 1026.50 1025.91 1025.31 1024.71 1024.12 1023.57 1023.07 1022.62 1022.22 1021.87 1021.54 1021.23
1032.10 1032.36 1032.60 1032.78 1032.89 1032.92 1032.89 1032.81 1032.70 1032.59 1032.49 1032.42 1032.39 1032.37 1032.37 1032.36 1032.31 1032.22 1032.06 1031.84 1031.57 1031.25 1030.89 1030.52 1030.14 1029.76 1029.37 1028.96 1028.53 1028.05 1027.53 1026.96 1026.35 1025.70 1025.03 1024.37 1023.72 1023.12 1022.57 1022.07 1021.63 1021.23 1020.87
1032.12 1032.42 1032.68 1032.90 1033.05 1033.14 1033.16 1033.13 1033.07 1032.99 1032.92 1032.86 1032.81 1032.78 1032.74 1032.69 1032.60 1032.46 1032.27 1032.03 1031.73 1031.40 1031.06 1030.70 1030.34 1029.99 1029.63 1029.26 1028.86 1028.41 1027.91 1027.35 1026.72 1026.05 1025.34 1024.61 1023.89 1023.19 1022.54 1021.94 1021.40 1020.92 1020.48
1032.01 1032.32 1032.61 1032.86 1033.06 1033.21 1033.30 1033.33 1033.33 1033.30 1033.26 1033.21 1033.15 1033.09 1033.01 1032.91 1032.76 1032.57 1032.33 1032.05 1031.73 1031.39 1031.05 1030.70 1030.37 1030.04 1029.72 1029.38 1029.02 1028.61 1028.13 1027.59 1026.97 1026.29 1025.56 1024.79 1024.01 1023.25 1022.51 1021.83 1021.20 1020.64 1020.13
1031.79 1032.11 1032.42 1032.70 1032.95 1033.15 1033.30 1033.40 1033.46 1033.48 1033.47 1033.43 1033.37 1033.28 1033.16 1033.01 1032.81 1032.57 1032.28 1031.97 1031.63 1031.28 1030.93 1030.60 1030.28 1029.98 1029.67 1029.36 1029.02 1028.64 1028.19 1027.67 1027.07 1026.39 1025.65 1024.87 1024.07 1023.26 1022.47 1021.73 1021.03 1020.40 1019.82
Thickness
5730 5729 5729 5726 5726 5725 5723 5722 5723 5722 5722 5721 5720 5720 5719 5718 5717 5716 5713 5712 5712 5713 5714 5714 5715 5715 5716 5716 5716 5717 5718 5718 5719 5719 5720 5721 5722 5723 5724 5724 5725 5726 5728
5727 5726 5726 5724 5723 5722 5721 5720 5719 5718 5717 5717 5716 5715 5715 5714 5713 5712 5710 5709 5707 5708 5709 5709 5710 5711 5711 5711 5711 5712 5712 5713 5714 5715 5716 5717 5718 5719 5719 5720 5721 5722 5723
5725 5724 5723 5722 5720 5719 5718 5717 5716 5715 5714 5713 5712 5711 5710 5709 5708 5708 5707 5706 5705 5703 5703 5704 5704 5705 5706 5706 5706 5707 5707 5709 5709 5710 5712 5713 5714 5715 5715 5715 5716 5717 5718
5722 5720 5719 5719 5716 5716 5715 5713 5713 5712 5711 5710 5709 5708 5707 5704 5705 5704 5704 5703 5702 5702 5699 5698 5698 5699 5700 5701 5701 5702 5703 5704 5705 5706 5707 5709 5710 5710 5711 5711 5712 5712 5714
5719 5718 5716 5715 5714 5713 5712 5711 5710 5710 5708 5705 5704 5703 5703 5701 5701 5700 5701 5700 5699 5698 5697 5695 5694 5694 5695 5696 5697 5697 5698 5699 5700 5702 5704 5705 5706 5706 5706 5707 5707 5708 5708
5715 5715 5713 5713 5711 5710 5709 5708 5706 5705 5704 5703 5703 5701 5700 5699 5698 5698 5698 5696 5695 5695 5694 5693 5693 5691 5690 5691 5692 5693 5694 5694 5696 5697 5698 5700 5701 5701 5701 5702 5702 5703 5703
5712 5711 5711 5710 5708 5707 5706 5706 5704 5702 5701 5701 5699 5697 5697 5697 5696 5694 5694 5693 5692 5691 5690 5690 5689 5689 5689 5686 5686 5687 5688 5690 5691 5691 5692 5694 5695 5696 5696 5696 5696 5697 5698
5709 5708 5708 5707 5705 5703 5702 5702 5700 5700 5699 5698 5697 5694 5691 5691 5690 5691 5690 5689 5689 5688 5687 5687 5686 5686 5685 5685 5682 5682 5683 5685 5685 5686 5686 5688 5689 5689 5689 5690 5690 5691 5692
5706 5705 5705 5705 5703 5702 5700 5698 5697 5695 5695 5695 5696 5693 5689 5686 5686 5687 5687 5686 5685 5684 5684 5683 5682 5682 5681 5681 5680 5678 5678 5679 5679 5680 5681 5681 5682 5683 5683 5684 5685 5685 5685
5703 5702 5702 5701 5701 5700 5698 5697 5696 5694 5692 5691 5691 5690 5691 5689 5684 5681 5682 5683 5681 5681 5680 5679 5678 5678 5677 5676 5674 5673 5673 5673 5674 5675 5675 5676 5676 5677 5678 5678 5679 5680 5680
5701 5700 5699 5699 5698 5697 5696 5694 5693 5692 5691 5690 5688 5687 5685 5684 5686 5681 5676 5677 5678 5678 5676 5675 5674 5673 5672 5671 5670 5669 5668 5668 5668 5669 5670 5670 5671 5672 5672 5673 5674 5674 5673
5698 5697 5697 5696 5696 5695 5694 5692 5691 5689 5688 5687 5686 5685 5683 5681 5680 5678 5676 5674 5673 5674 5673 5671 5670 5668 5667 5666 5665 5663 5663 5663 5663 5663 5664 5664 5665 5666 5667 5667 5668 5667 5667
5696 5695 5694 5694 5693 5692 5691 5689 5688 5687 5685 5683 5681 5681 5680 5679 5679 5677 5674 5672 5670 5671 5670 5669 5666 5664 5662 5661 5660 5658 5658 5657 5657 5658 5658 5658 5659 5660 5661 5661 5661 5660 5659
5694 5693 5691 5691 5690 5688 5687 5685 5684 5683 5682 5680 5678 5676 5675 5675 5675 5673 5671 5668 5666 5667 5667 5665 5663 5660 5658 5656 5654 5653 5653 5652 5652 5652 5652 5652 5653 5654 5655 5655 5653 5652 5652
5690 5689 5688 5687 5686 5684 5683 5682 5680 5679 5677 5676 5674 5673 5671 5670 5669 5668 5667 5666 5662 5661 5660 5659 5658 5655 5653 5651 5649 5649 5648 5646 5645 5645 5646 5646 5646 5646 5647 5646 5645 5644 5643
5687 5685 5684 5683 5682 5680 5679 5677 5676 5674 5673 5670 5668 5668 5666 5666 5665 5663 5661 5661 5660 5657 5655 5656 5652 5651 5648 5647 5644 5643 5642 5640 5639 5639 5639 5638 5638 5638 5638 5637 5636 5636 5635
5683 5682 5681 5680 5679 5677 5675 5673 5671 5669 5668 5666 5665 5663 5662 5660 5659 5658 5656 5654 5653 5652 5649 5649 5648 5646 5643 5641 5639 5638 5637 5636 5634 5632 5632 5631 5631 5630 5630 5629 5628 5628 5627
5681 5680 5678 5676 5674 5673 5671 5669 5667 5665 5663 5662 5661 5659 5657 5655 5653 5652 5650 5649 5648 5646 5644 5641 5641 5639 5637 5635 5633 5632 5631 5630 5629 5626 5625 5624 5623 5622 5622 5621 5620 5620 5619
5677 5676 5675 5672 5670 5669 5667 5666 5663 5661 5660 5659 5657 5655 5653 5652 5649 5647 5645 5644 5643 5642 5639 5637 5635 5633 5631 5629 5627 5625 5625 5623 5623 5620 5618 5616 5615 5614 5614 5613 5612 5611 5611
5673 5672 5670 5668 5666 5665 5663 5661 5659 5658 5656 5654 5652 5650 5649 5648 5645 5644 5641 5640 5638 5635 5633 5631 5629 5627 5625 5622 5620 5620 5619 5617 5616 5615 5612 5610 5608 5606 5606 5605 5604 5602 5601
5669 5667 5665 5664 5662 5660 5658 5656 5655 5653 5651 5649 5647 5646 5643 5641 5638 5637 5636 5634 5632 5630 5627 5624 5622 5620 5618 5615 5614 5613 5611 5611 5609 5607 5606 5604 5602 5601 5599 5596 5594 5593 5592
5664 5662 5660 5658 5656 5654 5650 5648 5648 5648 5647 5645 5642 5640 5637 5634 5631 5629 5627 5625 5623 5623 5621 5618 5615 5614 5612 5609 5606 5605 5604 5603 5602 5599 5597 5596 5594 5593 5591 5589 5586 5584 5582
5658 5656 5655 5653 5651 5648 5643 5641 5639 5641 5641 5639 5637 5634 5632 5629 5626 5625 5621 5617 5615 5612 5610 5611 5609 5607 5605 5603 5599 5597 5595 5593 5591 5589 5587 5588 5586 5584 5581 5579 5576 5573 5572
5654 5651 5650 5648 5645 5642 5638 5635 5633 5634 5634 5632 5630 5628 5626 5623 5620 5617 5616 5613 5611 5608 5604 5602 5600 5598 5595 5593 5591 5588 5586 5584 5582 5578 5576 5577 5577 5574 5572 5570 5566 5564 5562
5649 5647 5645 5643 5640 5638 5633 5629 5626 5627 5627 5625 5623 5620 5618 5616 5610 5607 5607 5606 5603 5599 5595 5591 5588 5586 5583 5581 5579 5579 5577 5575 5574 5572 5567 5566 5566 5564 5563 5561 5558 5555 5552
5644 5642 5639 5638 5636 5633 5628 5623 5620 5621 5620 5618 5616 5613 5608 5606 5601 5598 5599 5598 5595 5592 5589 5585 5582 5578 5576 5573 5570 5569 5568 5567 5566 5564 5560 5556 5556 5554 5554 5553 5549 5546 5544